• En España
  • Lista de países
  • Para 7 días
  • Temperatura del agua
  • Mapa Satelital
  • El tiempo en el mapa
  • Informadores
  • user-avatar
    Iniciar sesión

    Tiempo cada hora Shavkunovo

    Hoy, 18 Agosto, Sábado

    Tiempo Temperatura Precipitaciones Viento Presión Humedad
    00:00 +8°C° 0 mm 2 mps 752 mmHg 92%
    01:00 +8°C° 0 mm 2 mps 752 mmHg 94%
    02:00 +7°C° 0 mm 2 mps 752 mmHg 95%
    03:00 +7°C° 0 mm 2 mps 752 mmHg 96%
    04:00 +6°C° 0 mm 2 mps 753 mmHg 97%
    05:00 +7°C° 0 mm 2 mps 753 mmHg 94%
    06:00 +8°C° 0 mm 3 mps 753 mmHg 91%
    07:00 +9°C° 0 mm 3 mps 753 mmHg 88%
    08:00 +11°C° 0 mm 3 mps 753 mmHg 80%
    09:00 +12°C° 0 mm 4 mps 753 mmHg 73%
    10:00 +14°C° 0 mm 4 mps 753 mmHg 65%
    11:00 +15°C° 0 mm 4 mps 753 mmHg 62%
    12:00 +17°C° 0 mm 4 mps 753 mmHg 58%
    13:00 +18°C° 0 mm 4 mps 753 mmHg 54%
    14:00 +18°C° 0 mm 4 mps 753 mmHg 54%
    15:00 +18°C° 0 mm 4 mps 753 mmHg 54%
    16:00 +18°C° 0 mm 4 mps 753 mmHg 54%
    17:00 +17°C° 0 mm 3 mps 753 mmHg 60%
    18:00 +14°C° 0 mm 3 mps 753 mmHg 66%
    19:00 +14°C° 0 mm 2 mps 753 mmHg 72%
    20:00 +13°C° 0 mm 2 mps 754 mmHg 77%
    21:00 +10°C° 0 mm 2 mps 754 mmHg 82%
    22:00 +9°C° 0 mm 2 mps 754 mmHg 86%
    23:00 +9°C° 0 mm 2 mps 754 mmHg 89%

    Mañana, 19 Agosto, Domingo

    Tiempo Temperatura Precipitaciones Viento Presión Humedad
    00:00 +8°C° 0 mm 2 mps 754 mmHg 91%
    01:00 +8°C° 0 mm 2 mps 754 mmHg 93%
    02:00 +7°C° 0 mm 2 mps 755 mmHg 94%
    03:00 +8°C° 0 mm 1 mps 755 mmHg 94%
    04:00 +7°C° 0 mm 1 mps 755 mmHg 95%
    05:00 +8°C° 0 mm 1 mps 755 mmHg 91%
    06:00 +9°C° 0 mm 1 mps 755 mmHg 88%
    07:00 +10°C° 0 mm 1 mps 755 mmHg 85%
    08:00 +12°C° 0 mm 1 mps 755 mmHg 77%
    09:00 +14°C° 0 mm 2 mps 755 mmHg 70%
    10:00 +16°C° 0 mm 2 mps 755 mmHg 62%
    11:00 +17°C° 0 mm 2 mps 755 mmHg 58%
    12:00 +18°C° 0 mm 2 mps 754 mmHg 54%
    13:00 +19°C° 0 mm 2 mps 754 mmHg 50%
    14:00 +19°C° 0 mm 2 mps 754 mmHg 50%
    15:00 +19°C° 0 mm 2 mps 753 mmHg 49%
    16:00 +19°C° 0 mm 2 mps 753 mmHg 49%
    17:00 +19°C° 0 mm 1 mps 753 mmHg 55%
    18:00 +18°C° 0 mm 1 mps 753 mmHg 62%
    19:00 +15°C° 0 mm 1 mps 753 mmHg 69%
    20:00 +14°C° 0 mm 1 mps 753 mmHg 72%
    21:00 +12°C° 0 mm 0 mps 753 mmHg 76%
    22:00 +10°C° 0 mm 0 mps 753 mmHg 80%
    23:00 +11°C° 0 mm 1 mps 753 mmHg 81%

    Pasado mañana, 20 Agosto, Lunes

    Tiempo Temperatura Precipitaciones Viento Presión Humedad
    00:00 +10°C° 0 mm 1 mps 753 mmHg 82%
    01:00 +10°C° 0 mm 1 mps 753 mmHg 84%
    02:00 +10°C° 0 mm 1 mps 753 mmHg 85%
    03:00 +9°C° 0 mm 1 mps 753 mmHg 86%
    04:00 +9°C° 0 mm 1 mps 752 mmHg 86%
    05:00 +10°C° 0 mm 1 mps 752 mmHg 83%
    06:00 +11°C° 0 mm 1 mps 752 mmHg 80%
    07:00 +13°C° 0 mm 1 mps 752 mmHg 77%
    08:00 +15°C° 0 mm 1 mps 752 mmHg 71%
    09:00 +18°C° 0 mm 1 mps 752 mmHg 66%
    10:00 +20°C° 0 mm 1 mps 751 mmHg 60%
    11:00 +20°C° 0 mm 2 mps 751 mmHg 58%
    12:00 +21°C° 0 mm 2 mps 751 mmHg 56%
    13:00 +21°C° 0 mm 2 mps 750 mmHg 53%
    14:00 +23°C° 0 mm 2 mps 750 mmHg 55%
    15:00 +23°C° 0 mm 2 mps 750 mmHg 56%
    16:00 +23°C° 0 mm 2 mps 749 mmHg 57%
    17:00 +20°C° 0 mm 2 mps 749 mmHg 64%
    18:00 +19°C° 0 mm 2 mps 749 mmHg 71%
    19:00 +18°C° 0 mm 2 mps 749 mmHg 77%
    20:00 +17°C° 0 mm 2 mps 749 mmHg 81%
    21:00 +16°C° 0 mm 2 mps 749 mmHg 85%
    22:00 +14°C° 0 mm 2 mps 749 mmHg 88%
    23:00 +14°C° 0 mm 2 mps 748 mmHg 90%

    21 Agosto, Martes

    Tiempo Temperatura Precipitaciones Viento Presión Humedad
    00:00 +14°C° 0 mm 2 mps 748 mmHg 92%
    01:00 +13°C° 0 mm 2 mps 748 mmHg 94%
    02:00 +13°C° 0 mm 2 mps 748 mmHg 94%
    03:00 +13°C° 0 mm 2 mps 748 mmHg 95%
    04:00 +13°C° 0 mm 2 mps 748 mmHg 95%
    05:00 +14°C° 0 mm 2 mps 748 mmHg 93%
    06:00 +15°C° 0 mm 2 mps 747 mmHg 90%
    07:00 +14°C° 0 mm 3 mps 747 mmHg 88%
    08:00 +17°C° 0 mm 3 mps 747 mmHg 84%
    09:00 +18°C° 0 mm 3 mps 747 mmHg 81%
    10:00 +20°C° 0 mm 4 mps 747 mmHg 77%
    11:00 +20°C° 0,2 mm 3 mps 747 mmHg 79%
    12:00 +20°C° 0,2 mm 3 mps 746 mmHg 81%
    13:00 +20°C° 0,2 mm 3 mps 746 mmHg 83%
    14:00 +20°C° 0,1 mm 3 mps 746 mmHg 81%
    15:00 +21°C° 0,1 mm 3 mps 746 mmHg 78%
    16:00 +21°C° 0,1 mm 3 mps 746 mmHg 75%
    17:00 +20°C° 0 mm 2 mps 746 mmHg 79%
    18:00 +20°C° 0 mm 2 mps 746 mmHg 83%
    19:00 +20°C° 0 mm 1 mps 746 mmHg 87%
    20:00 +19°C° 0 mm 1 mps 746 mmHg 89%
    21:00 +18°C° 0 mm 1 mps 746 mmHg 91%
    22:00 +16°C° 0 mm 1 mps 746 mmHg 93%
    23:00 +16°C° 0 mm 1 mps 746 mmHg 94%

    22 Agosto, Miércoles

    Tiempo Temperatura Precipitaciones Viento Presión Humedad
    00:00 +16°C° 0 mm 1 mps 746 mmHg 95%
    01:00 +16°C° 0 mm 1 mps 746 mmHg 96%
    02:00 +15°C° 0 mm 1 mps 746 mmHg 96%
    03:00 +15°C° 0 mm 1 mps 745 mmHg 97%
    04:00 +15°C° 0 mm 1 mps 745 mmHg 98%
    05:00 +15°C° 0 mm 1 mps 746 mmHg 97%
    06:00 +16°C° 0 mm 1 mps 746 mmHg 96%
    07:00 +16°C° 0 mm 1 mps 746 mmHg 95%
    08:00 +19°C° 0 mm 1 mps 746 mmHg 88%
    09:00 +19°C° 0 mm 2 mps 745 mmHg 81%
    10:00 +21°C° 0 mm 2 mps 745 mmHg 75%
    11:00 +22°C° 0 mm 3 mps 745 mmHg 69%
    12:00 +24°C° 0 mm 3 mps 744 mmHg 63%
    13:00 +25°C° 0 mm 4 mps 744 mmHg 58%
    14:00 +25°C° 0,2 mm 4 mps 743 mmHg 63%
    15:00 +23°C° 0,2 mm 4 mps 743 mmHg 68%
    16:00 +23°C° 0,2 mm 5 mps 742 mmHg 73%
    17:00 +22°C° 0,9 mm 5 mps 742 mmHg 79%
    18:00 +21°C° 0,9 mm 5 mps 741 mmHg 85%
    19:00 +19°C° 0,9 mm 5 mps 741 mmHg 90%
    20:00 +19°C° 0,5 mm 5 mps 740 mmHg 91%
    21:00 +19°C° 0,5 mm 5 mps 740 mmHg 92%
    22:00 +17°C° 0,5 mm 5 mps 740 mmHg 93%
    23:00 +16°C° 0,1 mm 5 mps 740 mmHg 93%

    23 Agosto, Jueves

    Tiempo Temperatura Precipitaciones Viento Presión Humedad
    00:00 +15°C° 0,1 mm 5 mps 739 mmHg 93%
    01:00 +14°C° 0,1 mm 5 mps 739 mmHg 93%
    02:00 +13°C° 0 mm 5 mps 740 mmHg 93%
    03:00 +12°C° 0 mm 5 mps 740 mmHg 93%
    04:00 +10°C° 0 mm 5 mps 740 mmHg 93%
    05:00 +10°C° 0 mm 5 mps 740 mmHg 91%
    06:00 +10°C° 0 mm 6 mps 740 mmHg 89%
    07:00 +10°C° 0 mm 6 mps 740 mmHg 87%
    08:00 +11°C° 0,1 mm 6 mps 741 mmHg 84%
    09:00 +11°C° 0,1 mm 7 mps 741 mmHg 80%
    10:00 +11°C° 0,1 mm 7 mps 741 mmHg 76%
    11:00 +11°C° 0,1 mm 7 mps 741 mmHg 76%
    12:00 +11°C° 0,1 mm 7 mps 742 mmHg 75%
    13:00 +11°C° 0,1 mm 7 mps 742 mmHg 75%
    14:00 +11°C° 0 mm 6 mps 742 mmHg 74%
    15:00 +11°C° 0 mm 6 mps 743 mmHg 73%
    16:00 +13°C° 0 mm 6 mps 743 mmHg 71%
    17:00 +13°C° 0 mm 5 mps 743 mmHg 72%
    18:00 +12°C° 0 mm 5 mps 744 mmHg 72%
    19:00 +12°C° 0 mm 4 mps 744 mmHg 73%
    20:00 +11°C° 0 mm 3 mps 744 mmHg 77%
    21:00 +10°C° 0 mm 3 mps 744 mmHg 82%
    22:00 +9°C° 0 mm 2 mps 744 mmHg 87%
    23:00 +9°C° 0 mm 2 mps 744 mmHg 87%
    Mostrar más